User: anonymous   Login
Location: Newark
(49.8969°N, 3.3422°E)
Time: 19:46:51
(UTC+00:00)
Language:

Transit 2A - Orbit

View from above orbital plane
View from above orbital plane
View from above satellite
View from above satellite

Ground track
Ground track

The orbit data is extracted from the following two-line orbital elements,

1    45U 60007A   20018.48413708 -.00000078 +00000-0 +72466-5 0  9994
2    45 066.6949 058.7591 0248836 064.7903 297.8771 14.33662771101065
Epoch (UTC): 18 January 2020 11:37:09
Eccentricity: 0.0248836
inclination: 66.6949°
perigee height: 601 km
apogee height: 957 km
right ascension of ascending node: 58.7591°
argument of perigee: 64.7903°
revolutions per day: 14.33662771
mean anomaly at epoch: 297.8771°
orbit number at epoch: 10106

The dashed part of the orbit path shows where the satellite is in the earth's shadow,  

DLR